Location: Bukit Nyuki
(2.5885°N, 113.7476°E)
Time: 06:15:19
(UTC+00:00)

Cosmos 1953 Rocket - Pass Details

Date: 18 May 2021
Orbit: 605 x 634 km, 82.5° (Epoch: 22 June)

Event Time Altitude Azimuth Distance (km) Brightness Sun altitude
Exits shadow 20:35:26 24° 162° (SSE) 1,297 5.1 -23.9°
Maximum altitude 20:37:54 54° 94° (E) 748 4.2 -23.3°
Drops below altitude 10° 20:42:09 10° 16° (NNE) 1,961 6.6 -22.3°
Sets 20:44:23 0° 12° (NNE) 2,859 7.4 -21.8°
